Time,TemperatureF,DewpointF,PressureIn,WindDirection,WindDirectionDegrees,WindSpeedMPH,WindSpeedGustMPH,Humidity,HourlyPrecipIn,Conditions,Clouds,dailyrainin,SoftwareType,DateUTC
2013-03-01 00:01:00,19.1,8.0,30.25,NNE,31,6.0,-999.0,61,-99.99,,,0.00,weatherlink.com 1.10,2013-03-01 06:01:00,
2013-03-01 00:16:00,18.9,7.0,30.26,NE,34,6.0,-999.0,61,-99.99,,,0.00,weatherlink.com 1.10,2013-03-01 06:16:00,
2013-03-01 00:31:00,18.9,7.0,30.26,NE,37,3.0,-999.0,61,-99.99,,,0.00,weatherlink.com 1.10,2013-03-01 06:31:00,
2013-03-01 00:46:00,18.8,7.0,30.26,NE,37,7.0,-999.0,60,-99.99,,,0.00,weatherlink.com 1.10,2013-03-01 06:46:00,
2013-03-01 01:01:00,18.4,7.0,30.26,North,6,9.0,-999.0,60,-99.99,,,0.00,weatherlink.com 1.10,2013-03-01 07:01:00,
2013-03-01 01:31:00,17.8,6.0,30.27,NNE,19,4.0,-999.0,61,-99.99,,,0.00,weatherlink.com 1.10,2013-03-01 07:31:00,
2013-03-01 01:46:00,17.7,6.0,30.27,NNE,25,2.0,-999.0,61,-99.99,,,0.00,weatherlink.com 1.10,2013-03-01 07:46:00,
2013-03-01 02:01:00,17.7,6.0,30.27,NE,34,7.0,-999.0,61,-99.99,,,0.00,weatherlink.com 1.10,2013-03-01 08:01:00,
2013-03-01 02:16:00,17.7,7.0,30.27,NNE,21,7.0,-999.0,62,-99.99,,,0.00,weatherlink.com 1.10,2013-03-01 08:16:00,
2013-03-01 02:32:00,17.8,7.0,30.27,NE,43,0.0,-999.0,63,-99.99,,,0.00,weatherlink.com 1.10,2013-03-01 08:32:00,
2013-03-01 02:47:00,17.8,7.0,30.28,NNE,32,3.0,-999.0,64,-99.99,,,0.00,weatherlink.com 1.10,2013-03-01 08:47:00,
2013-03-01 03:02:00,17.8,8.0,30.28,ENE,60,0.0,-999.0,65,-99.99,,,0.00,weatherlink.com 1.10,2013-03-01 09:02:00,
2013-03-01 03:17:00,17.7,8.0,30.28,NNE,25,3.0,-999.0,66,-99.99,,,0.00,weatherlink.com 1.10,2013-03-01 09:17:00,
2013-03-01 03:32:00,17.7,8.0,30.28,ENE,70,5.0,-999.0,67,-99.99,,,0.00,weatherlink.com 1.10,2013-03-01 09:32:00,
2013-03-01 03:47:00,17.7,9.0,30.28,North,8,5.0,-999.0,68,-99.99,,,0.00,weatherlink.com 1.10,2013-03-01 09:47:00,
2013-03-01 04:02:00,17.7,9.0,30.28,NE,49,3.0,-999.0,69,-99.99,,,0.00,weatherlink.com 1.10,2013-03-01 10:02:00,
2013-03-01 04:17:00,17.5,9.0,30.29,NE,56,0.0,-999.0,70,-99.99,,,0.00,weatherlink.com 1.10,2013-03-01 10:17:00,
2013-03-01 04:32:00,17.3,9.0,30.29,NE,42,6.0,-999.0,71,-99.99,,,0.00,weatherlink.com 1.10,2013-03-01 10:32:00,
2013-03-01 04:47:00,17.3,10.0,30.30,NNE,19,0.0,-999.0,72,-99.99,,,0.00,weatherlink.com 1.10,2013-03-01 10:47:00,
2013-03-01 05:02:00,17.2,10.0,30.30,NNE,22,5.0,-999.0,72,-99.99,,,0.00,weatherlink.com 1.10,2013-03-01 11:02:00,
2013-03-01 05:17:00,17.0,10.0,30.30,NNE,27,9.0,-999.0,73,-99.99,,,0.00,weatherlink.com 1.10,2013-03-01 11:17:00,
2013-03-01 05:32:00,16.2,8.0,30.31,North,4,1.0,-999.0,71,-99.99,,,0.00,weatherlink.com 1.10,2013-03-01 11:32:00,
2013-03-01 06:02:00,15.1,7.0,30.33,North,356,7.0,-999.0,71,-99.99,,,0.00,weatherlink.com 1.10,2013-03-01 12:02:00,
2013-03-01 06:17:00,14.8,7.0,30.33,NNE,20,6.0,-999.0,71,-99.99,,,0.00,weatherlink.com 1.10,2013-03-01 12:17:00,
2013-03-01 06:32:00,14.6,7.0,30.33,North,0,5.0,-999.0,72,-99.99,,,0.00,weatherlink.com 1.10,2013-03-01 12:32:00,
2013-03-01 06:47:00,14.3,7.0,30.34,NNE,17,2.0,-999.0,71,-99.99,,,0.00,weatherlink.com 1.10,2013-03-01 12:47:00,
2013-03-01 07:32:00,13.3,5.0,30.36,North,358,5.0,-999.0,70,-99.99,,,0.00,weatherlink.com 1.10,2013-03-01 13:32:00,
2013-03-01 07:47:00,12.9,5.0,30.37,North,0,2.0,-999.0,70,-99.99,,,0.00,weatherlink.com 1.10,2013-03-01 13:47:00,
2013-03-01 08:02:00,13.1,5.0,30.37,North,11,2.0,-999.0,71,-99.99,,,0.00,weatherlink.com 1.10,2013-03-01 14:02:00,
2013-03-01 08:17:00,13.3,6.0,30.38,North,0,4.0,-999.0,71,-99.99,,,0.00,weatherlink.com 1.10,2013-03-01 14:17:00,
2013-03-01 08:32:00,13.3,6.0,30.38,NNW,338,4.0,-999.0,71,-99.99,,,0.00,weatherlink.com 1.10,2013-03-01 14:32:00,
2013-03-01 08:47:00,13.6,6.0,30.38,North,0,4.0,-999.0,71,-99.99,,,0.00,weatherlink.com 1.10,2013-03-01 14:47:00,
2013-03-01 09:02:00,14.1,7.0,30.38,North,0,4.0,-999.0,72,-99.99,,,0.00,weatherlink.com 1.10,2013-03-01 15:02:00,
2013-03-01 09:17:00,14.4,7.0,30.38,North,5,6.0,-999.0,72,-99.99,,,0.00,weatherlink.com 1.10,2013-03-01 15:17:00,
2013-03-01 09:32:00,15.1,8.0,30.38,NNE,14,4.0,-999.0,73,-99.99,,,0.00,weatherlink.com 1.10,2013-03-01 15:32:00,
2013-03-01 09:47:00,15.6,8.0,30.38,North,0,5.0,-999.0,72,-99.99,,,0.00,weatherlink.com 1.10,2013-03-01 15:47:00,
2013-03-01 10:03:00,16.4,9.0,30.38,NNE,15,2.0,-999.0,71,-99.99,,,0.00,weatherlink.com 1.10,2013-03-01 16:03:00,
2013-03-01 10:18:00,17.3,9.0,30.38,ENE,60,2.0,-999.0,71,-99.99,,,0.00,weatherlink.com 1.10,2013-03-01 16:18:00,
2013-03-01 10:33:00,17.8,10.0,30.38,NE,56,13.0,-999.0,70,-99.99,,,0.00,weatherlink.com 1.10,2013-03-01 16:33:00,
2013-03-01 10:48:00,18.0,9.0,30.38,ENE,57,4.0,-999.0,69,-99.99,,,0.00,weatherlink.com 1.10,2013-03-01 16:48:00,
2013-03-01 11:18:00,19.4,10.0,30.39,ENE,65,1.0,-999.0,67,-99.99,,,0.00,weatherlink.com 1.10,2013-03-01 17:18:00,
2013-03-01 11:33:00,19.4,10.0,30.38,NE,53,4.0,-999.0,67,-99.99,,,0.00,weatherlink.com 1.10,2013-03-01 17:33:00,
2013-03-01 11:48:00,18.8,8.0,30.39,NE,54,10.0,-999.0,64,-99.99,,,0.00,weatherlink.com 1.10,2013-03-01 17:48:00,
2013-03-01 12:03:00,18.9,9.0,30.39,NE,56,6.0,-999.0,64,-99.99,,,0.00,weatherlink.com 1.10,2013-03-01 18:03:00,
2013-03-01 12:18:00,18.9,9.0,30.38,NE,50,3.0,-999.0,64,-99.99,,,0.00,weatherlink.com 1.10,2013-03-01 18:18:00,
2013-03-01 12:33:00,20.0,9.0,30.38,ENE,58,4.0,-999.0,63,-99.99,,,0.00,weatherlink.com 1.10,2013-03-01 18:33:00,
2013-03-01 12:48:00,20.3,9.0,30.38,NE,43,10.0,-999.0,62,-99.99,,,0.00,weatherlink.com 1.10,2013-03-01 18:48:00,
2013-03-01 13:03:00,21.1,8.0,30.37,NE,55,14.0,-999.0,57,-99.99,,,0.00,weatherlink.com 1.10,2013-03-01 19:03:00,
2013-03-01 13:18:00,21.0,9.0,30.37,NE,53,4.0,-999.0,59,-99.99,,,0.00,weatherlink.com 1.10,2013-03-01 19:18:00,
2013-03-01 13:33:00,20.8,8.0,30.36,ENE,70,6.0,-999.0,57,-99.99,,,0.00,weatherlink.com 1.10,2013-03-01 19:33:00,
2013-03-01 13:48:00,21.8,8.0,30.36,ENE,61,7.0,-999.0,56,-99.99,,,0.00,weatherlink.com 1.10,2013-03-01 19:48:00,
2013-03-01 14:03:00,22.4,9.0,30.36,NE,42,8.0,-999.0,56,-99.99,,,0.00,weatherlink.com 1.10,2013-03-01 20:03:00,
2013-03-01 14:18:00,21.3,8.0,30.36,ENE,63,1.0,-999.0,57,-99.99,,,0.00,weatherlink.com 1.10,2013-03-01 20:18:00,
2013-03-01 14:33:00,21.4,9.0,30.36,East,82,2.0,-999.0,58,-99.99,,,0.00,weatherlink.com 1.10,2013-03-01 20:33:00,
2013-03-01 14:48:00,21.9,9.0,30.36,ESE,116,6.0,-999.0,58,-99.99,,,0.00,weatherlink.com 1.10,2013-03-01 20:48:00,
2013-03-01 15:18:00,22.2,9.0,30.36,ENE,75,5.0,-999.0,57,-99.99,,,0.00,weatherlink.com 1.10,2013-03-01 21:18:00,
2013-03-01 15:33:00,21.9,9.0,30.35,East,85,6.0,-999.0,57,-99.99,,,0.00,weatherlink.com 1.10,2013-03-01 21:33:00,
2013-03-01 15:48:00,21.9,8.0,30.36,ENE,74,3.0,-999.0,55,-99.99,,,0.00,weatherlink.com 1.10,2013-03-01 21:48:00,
2013-03-01 16:03:00,21.6,8.0,30.36,ENE,72,3.0,-999.0,56,-99.99,,,0.00,weatherlink.com 1.10,2013-03-01 22:03:00,
2013-03-01 16:18:00,21.6,8.0,30.37,ENE,72,9.0,-999.0,56,-99.99,,,0.00,weatherlink.com 1.10,2013-03-01 22:18:00,
2013-03-01 16:33:00,20.8,7.0,30.37,ENE,72,2.0,-999.0,56,-99.99,,,0.00,weatherlink.com 1.10,2013-03-01 22:33:00,
2013-03-01 16:48:00,20.5,8.0,30.37,East,80,7.0,-999.0,58,-99.99,,,0.00,weatherlink.com 1.10,2013-03-01 22:48:00,
2013-03-01 17:03:00,20.2,8.0,30.38,ENE,63,4.0,-999.0,60,-99.99,,,0.00,weatherlink.com 1.10,2013-03-01 23:03:00,
2013-03-01 17:18:00,20.2,7.0,30.37,ENE,72,3.0,-999.0,58,-99.99,,,0.00,weatherlink.com 1.10,2013-03-01 23:18:00,
2013-03-01 17:33:00,19.9,7.0,30.38,East,90,3.0,-999.0,58,-99.99,,,0.00,weatherlink.com 1.10,2013-03-01 23:33:00,
2013-03-01 17:48:00,19.4,7.0,30.37,East,91,2.0,-999.0,60,-99.99,,,0.00,weatherlink.com 1.10,2013-03-01 23:48:00,
2013-03-01 18:03:00,18.6,7.0,30.38,East,91,2.0,-999.0,61,-99.99,,,0.00,weatherlink.com 1.10,2013-03-02 00:03:00,
2013-03-01 18:18:00,17.7,7.0,30.38,East,91,3.0,-999.0,63,-99.99,,,0.00,weatherlink.com 1.10,2013-03-02 00:18:00,
2013-03-01 18:33:00,16.9,7.0,30.38,East,79,0.0,-999.0,64,-99.99,,,0.00,weatherlink.com 1.10,2013-03-02 00:33:00,
2013-03-01 18:48:00,15.9,6.0,30.39,East,79,1.0,-999.0,65,-99.99,,,0.00,weatherlink.com 1.10,2013-03-02 00:48:00,
2013-03-01 19:18:00,13.5,5.0,30.39,East,79,1.0,-999.0,68,-99.99,,,0.00,weatherlink.com 1.10,2013-03-02 01:18:00,
2013-03-01 19:33:00,12.1,4.0,30.39,East,79,0.0,-999.0,71,-99.99,,,0.00,weatherlink.com 1.10,2013-03-02 01:33:00,
2013-03-01 19:48:00,11.1,4.0,30.39,East,79,0.0,-999.0,73,-99.99,,,0.00,weatherlink.com 1.10,2013-03-02 01:48:00,
2013-03-01 20:03:00,10.2,3.0,30.40,East,79,0.0,-999.0,72,-99.99,,,0.00,weatherlink.com 1.10,2013-03-02 02:03:00,
2013-03-01 20:18:00,9.3,2.0,30.40,East,79,3.0,-999.0,73,-99.99,,,0.00,weatherlink.com 1.10,2013-03-02 02:18:00,
2013-03-01 20:33:00,8.4,2.0,30.40,ENE,65,0.0,-999.0,74,-99.99,,,0.00,weatherlink.com 1.10,2013-03-02 02:33:00,
2013-03-01 20:48:00,7.6,2.0,30.39,ENE,65,0.0,-999.0,76,-99.99,,,0.00,weatherlink.com 1.10,2013-03-02 02:48:00,
2013-03-01 21:03:00,6.9,1.0,30.39,ENE,65,0.0,-999.0,78,-99.99,,,0.00,weatherlink.com 1.10,2013-03-02 03:03:00,
2013-03-01 21:18:00,6.3,1.0,30.39,ENE,65,1.0,-999.0,78,-99.99,,,0.00,weatherlink.com 1.10,2013-03-02 03:18:00,
2013-03-01 21:33:00,5.8,0.0,30.39,ENE,65,0.0,-999.0,78,-99.99,,,0.00,weatherlink.com 1.10,2013-03-02 03:33:00,
2013-03-01 21:48:00,4.7,-1.0,30.39,ENE,65,1.0,-999.0,76,-99.99,,,0.00,weatherlink.com 1.10,2013-03-02 03:48:00,
2013-03-01 22:18:00,3.9,-1.0,30.39,NE,44,0.0,-999.0,79,-99.99,,,0.00,weatherlink.com 1.10,2013-03-02 04:18:00,
2013-03-01 22:34:00,3.5,-2.0,30.38,NE,44,1.0,-999.0,78,-99.99,,,0.00,weatherlink.com 1.10,2013-03-02 04:34:00,
2013-03-01 22:49:00,3.2,-2.0,30.38,NE,44,1.0,-999.0,79,-99.99,,,0.00,weatherlink.com 1.10,2013-03-02 04:49:00,
2013-03-01 23:19:00,3.0,-2.0,30.38,NE,43,0.0,-999.0,79,-99.99,,,0.00,weatherlink.com 1.10,2013-03-02 05:19:00,
2013-03-01 23:34:00,2.4,-3.0,30.37,NE,43,0.0,-999.0,78,-99.99,,,0.00,weatherlink.com 1.10,2013-03-02 05:34:00,
2013-03-01 23:49:00,1.7,-5.0,30.38,NE,43,0.0,-999.0,74,-99.99,,,0.00,weatherlink.com 1.10,2013-03-02 05:49:00,